Regional Weather Roundup
Issued by NWS

Home | Current Version | Previous Version | Text Only | Print | Product List | Glossary Off
Versions: 1 2 3 4 5 6 7 8 9 10 11 12 13 14 15 16 17 18 19 20 21 22 23 24 25 26 27 28 29 30 31 32 33 34 35 36 37 38 39 40 41 42 43 44 45 46 47 48 49 50

000
ASUS45 KABQ 170001
RWRNM
WEATHER ROUNDUP FOR NEW MEXICO
NATIONAL WEATHER SERVICE ALBUQUERQUE NM
600 PM MDT TUE SEP 16 2014

NOTE: "FAIR" MEANS FEW OR NO CLOUDS BELOW 12,000 FEET AGL WITH NO
       SIGNIFICANT WEATHER OR OBSTRUCTIONS TO VISION.

      THIS PRODUCT IS RELEASED AS TWO VERSIONS.  ONE VERSION NEAR
      THE TOP OF THE HOUR CONTAINING PRELIMINARY DATA FROM ALBUQUERQUE
      AND OTHER STATIONS.  A FINAL VERSION WITH ADDITIONAL DATA IS
      ISSUED ABOUT 10 MINUTES AFTER THE HOUR.

NMZ501-503-504-510>518-170100-
NORTHWEST PLATEAU/NORTHCENTRAL MOUNTAINS

CITY           SKY/WX    TMP DP  RH WIND       PRES   REMARKS
FARMINGTON     SUNNY     84  43  23 SW6       30.10F
6HR MIN TEMP:  75; 6HR MAX TEMP:  85;

LOS ALAMOS     PTSUNNY   69  50  50 S14G20    30.28S
SANTA FE       CLOUDY    72  51  47 W12       30.23R
6HR MIN TEMP:  67; 6HR MAX TEMP:  77;

ANGEL FIRE     FAIR      61  46  58 SE3       30.38S

$$
NMZ402-403-502-505>509-170100-
WESTCENTRAL MOUNTAINS/SOUTHWEST MOUNTAINS

CITY           SKY/WX    TMP DP  RH WIND       PRES   REMARKS
GALLUP         CLOUDY    74  48  39 S7        30.21S THUNDER
6HR MIN TEMP:  69; 6HR MAX TEMP:  77; 6HR PCP: TRACE;

GRANTS         CLOUDY    70  52  52 SE14      30.26S
SILVER CITY    CLOUDY    66  61  82 E10       30.20F

$$
NMZ407-409-411-412-170100-
SOUTHERN DESERTS

CITY           SKY/WX    TMP DP  RH WIND       PRES   REMARKS
LORDSBURG      FAIR      72  63  73 E13G18    30.09F
DEMING         CLOUDY    69  65  86 NE10      30.12R
6HR MIN TEMP:  66; 6HR MAX TEMP:  70; 6HR PCP:  0.52;

LAS CRUCES     CLOUDY    73  63  68 N3        30.14R
HOLLOMAN AFB   CLOUDY    71  65  81 N8        30.12F
ALAMOGORDO     CLOUDY    68  64  88 N12       30.14S
T OR C         LGT RAIN  64  63  96 N7        30.17F
6HR MIN TEMP:  64; 6HR MAX TEMP:  69; 6HR PCP:  0.17;


$$
NMZ519>523-170100-
CENTRAL VALLEYS/CENTRAL HIGHLANDS

CITY           SKY/WX    TMP DP  RH WIND       PRES   REMARKS
ALBUQUERQUE    CLOUDY    68  56  65 S14       30.21S
6HR MIN TEMP:  68; 6HR MAX TEMP:  72;

DOUBLE EAGLE   CLOUDY    68  54  60 S13       30.23S
CLINES CORNERS CLOUDY    64  50  60 SW9       30.28F
6HR MIN TEMP:  64; 6HR MAX TEMP:  68;

BELEN          DRIZZLE   65  59  79 S9        30.21S
6HR MIN TEMP:  65; 6HR MAX TEMP:  74;

SOCORRO        RAIN      67  62  83 N5        30.19S
6HR MIN TEMP:  65; 6HR MAX TEMP:  69; 6HR PCP:  0.03;


$$
NMZ524>526-539-540-170100-
SOUTHCENTRAL MOUNTAINS

CITY           SKY/WX    TMP DP  RH WIND       PRES   REMARKS
RUIDOSO        NOT AVBL

$$
NMZ527>531-170100-
NORTHEAST HIGHLANDS/NORTHEAST PLAINS

CITY           SKY/WX    TMP DP  RH WIND       PRES   REMARKS
LAS VEGAS      CLOUDY    69  51  52 S17       30.25S
6HR MIN TEMP:  64; 6HR MAX TEMP:  75;

RATON          PTSUNNY   75  47  36 SE17      30.20R
6HR MIN TEMP:  71; 6HR MAX TEMP:  82;

CLAYTON        MOSUNNY   73  57  57 SW18      30.14S
6HR MIN TEMP:  73; 6HR MAX TEMP:  80;


$$
NMZ532>537-170100-
EASTCENTRAL PLAINS

CITY           SKY/WX    TMP DP  RH WIND       PRES   REMARKS
TUCUMCARI      CLOUDY    75  59  57 SW16      30.12R
6HR MIN TEMP:  74; 6HR MAX TEMP:  80;

CANNON AFB     NOT AVBL
CLOVIS AIRPORT   N/A     70  63  78 SW16      30.19R

$$
NMZ028-029-538-170100-
SOUTHEAST PLAINS

CITY           SKY/WX    TMP DP  RH WIND       PRES   REMARKS
ROSWELL        CLOUDY    70  65  84 CALM      30.14F
6HR MIN TEMP:  68; 6HR MAX TEMP:  71; 6HR PCP:  0.05;

CARLSBAD       PTSUNNY   77  71  82 NE5       30.09F
6HR MIN TEMP:  71; 6HR MAX TEMP:  79; 6HR PCP: TRACE;

HOBBS          CLOUDY    73  68  83 N6        30.15S


$$


USA.gov is the U.S. government's official web portal to all federal, state and local government web resources and services.